Tracking 30995 objects as of 5-Jul-2025
HD Live streaming from Space Station
objects crossing your sky now

STARLINK-1202

Track STARLINK-1202 now!
10-day predictions
STARLINK-1202 is classified as:


NORAD ID: 45183
Int'l Code: 2020-012F
Perigee: 553.1 km
Apogee: 555.5 km
Inclination: 53.1 °
Period: 95.6 minutes
Semi major axis: 6925 km
RCS: Unknown
Launch date: February 17, 2020
Source: United States (US)
Launch site: AIR FORCE EASTERN TEST RANGE (AFETR)
Your satellite tracking list
ANIK B1 (TELESAT-4)
Track 1 satellite(s)




NASA's NSSDC Master Catalog

Two Line Element Set (TLE):
1 45183U 20012F   25185.96743681  .00001250  00000-0  10278-3 0  9990
2 45183  53.0548  78.6845 0001697  96.3480 263.7702 15.06411320296859
Source of the keplerian elements: AFSPC